Regional Weather Roundup
Issued by NWS Wakefield, VA

Home | Current Version | Previous Version | Graphics & Text | Print | Product List | Glossary On
Versions: 1 2 3 4 5 6 7 8 9 10 11 12 13 14 15 16 17 18 19 20 21 22 23 24 25 26 27 28 29 30 31 32 33 34 35 36 37 38 39 40 41 42 43 44 45 46 47 48 49 50
000
ASUS41 KAKQ 050715
RWRAKQ

REGIONAL WEATHER ROUNDUP
NATIONAL WEATHER SERVICE WAKEFIELD VA
200 AM EST FRI FEB 05 2016

Note: "fair" indicates few or no clouds below 12,000 feet with no
significant weather and/or obstructions to visibility. * = Denotes
station may not report precipitation (e.g., rain,snow,etc.),
thunder or fog.

VAZ042-051-052>054-056-050800-
NORTHERN VIRGINIA

CITY           SKY/WX    TMP DP  RH WIND       PRES   REMARKS
WASH NATIONAL  LGT SNOW  37  31  78 N10       30.11R FOG
DULLES         FLURRIES  38  27  64 NW10      30.12R
FORT BELVOIR   LGT RAIN  38  30  74 NW13G22   30.11S
QUANTICO       CLOUDY    40  30  67 N16G28    30.10F
FREDERICKSBRG* FLURRIES  39  30  70 N12       30.09R
STAFFORD*      CLOUDY    37  29  71 N17       30.13F
WARRENTON      FLURRIES  38  32  80 N16G29    30.11S
CULPEPER*      LGT SNOW  35  30  80 N14G23    30.14R
MANASSAS*      CLOUDY    37  30  75 N13       30.11S
LEESBURG*      CLOUDY    39  30  70 NW15      30.14R
WINCHESTER     CLOUDY    37  27  65 NW16      30.13R
FRONT ROYAL*   CLOUDY    36  27  69 NW8       30.13R
LURAY*         CLOUDY    36  27  69 N9        30.10S
$$

VAZ048-049-060>072-079>083-050800-
CENTRAL AND SOUTH CENTRAL VIRGINIA

CITY           SKY/WX    TMP DP  RH WIND       PRES   REMARKS
RICHMOND       RAIN      37  34  89 N14       30.04F
CHESTERFIELD*  CLOUDY    39  23  52 N9        30.06S
PETERSBURG*    TSTM      40  34  80 N8        30.05F
HANOVER        LGT RAIN  39  29  67 NW9G18    30.09R
TAPPAHANNOCK*  LGT RAIN  39  36  89 N7        30.05S
QUINTON*       CLOUDY    37  35  92 N7        30.04F FOG
CHARLOTTSVILLE FLURRIES  37  28  70 N8        30.08F
GORDONSVILLE*  CLOUDY    35  32  88 NE8       30.09R
ORANGE*        FLURRIES  36  32  87 NW12G23   30.10F
LOUISA*        CLOUDY    39  28  65 N14G22    30.06S
BUMPASS*       CLOUDY    40  27  59 N5        30.06F
FARMVILLE*     LGT RAIN  40  32  71 N8        30.06S
CREWE*         CLOUDY    40  30  68 N7        30.03F
FORT PICKETT*  CLOUDY    39  33  79 N7        30.03F
CHASE CITY*    CLOUDY    40  33  76 N8        30.04F
CLARKSVILLE*   CLOUDY    41  34  75 N8        30.02F
SOUTH HILL*    CLOUDY    38  36  92 N9        30.08F
LAWRENCEVILLE* CLOUDY    38  36  92 N3        30.02F
EMPORIA*       LGT SNOW  37  36  93 N12       30.03F
$$

VAZ088>098-050800-
SOUTHEAST VIRGINIA

CITY           SKY/WX    TMP DP  RH WIND       PRES   REMARKS
NORFOLK        RAIN      41  37  86 N21G32    30.01R FOG
VIRGINIA BEACH LGT RAIN  44  38  79 N20G25    29.96F
NORFOLK NAVAL  LGT RAIN  41  38  89 N22G31    30.00R FOG
WEST POINT*    CLOUDY    38  37  92 N8        30.06S
SALUDA*        CLOUDY    39  37  93 N13       30.02F
NEWPORT NEWS   RAIN      40  38  93 N12G20    30.01R
LANGLEY AFB    LGT RAIN  40  38  93 N13G22    30.00R
FORT EUSTIS    LGT RAIN  39  39 100 N13G21    29.98S
WILLIAMSBURG*  MOCLDY    43  43 100 N8        30.02S
HR EXEC AP*    CLOUDY    43  37  81 N9G16     30.00S
FRANKLIN*      HVY RAIN  40  38  93 N8G18     30.01S
US460-WAKEFLD  LGT RAIN  41  37  86 N8G21     30.02R FOG
$$

VAZ020-022-025-037-045-050800-
WEST CENTRAL AND SOUTHWEST VIRGINIA

CITY           SKY/WX    TMP DP  RH WIND       PRES   REMARKS
STAUNTON*      CLOUDY    40  27  59 NW8G16    30.11R
WAYNESBORO*    CLOUDY    35  26  70 N9        30.06F
HOT SPRINGS VA CLOUDY    25  19  79 NW20G30   29.97F WCI  11
LYNCHBURG      MIX PCPN  36  33  89 NW7       30.09S
DANVILLE       LGT RAIN  38  34  85 N12       30.08S
SOUTH BOSTON*  CLOUDY    40  34  78 N9G16     30.05F
MARTINSVILLE   FLURRIES  36  24  62 NW12      30.10S
ROANOKE        CLOUDY    36  21  54 NW18G30   30.11S
BLACKSBURG     CLOUDY    32  23  67 NW16G23   30.13R WCI  22
DUBLIN*        CLOUDY    33  22  64 NW12G21   30.12S WCI  25
MARION*        CLOUDY    30  19  63 W12       30.15R WCI  21
HILLSVILLE*    CLOUDY    30  20  68 NW15G24   30.07R WCI  19
RICHLANDS*     CLOUDY    26  14  59 NW13G24   30.17S WCI  15
WISE*          CLOUDY    28  12  50 NW10G16   30.21S WCI  19
ABINGDON*      CLOUDY    31  16  53 N10       30.21R WCI  23
$$

MDZ021>025-VAZ099-100-050800-
SOUTHERN MARYLAND AND THE DELMARVA PENINSULA

CITY           SKY/WX    TMP DP  RH WIND       PRES   REMARKS
PATUXENT RIVER CLOUDY    37  33  85 N15       30.07R FOG
BAY BRIDGE APT RAIN      36  34  93 N12G18    30.09S
LEONARDTOWN    CLOUDY    36  32  87 NW3       30.08S
DOVER          LGT RAIN  39  39 100 NW16      30.02S
GEORGETOWN     LGT RAIN  39  38  96 N9        30.01S FOG
EASTON         LGT SNOW  36  36 100 N8        30.09S
CAMBRIDGE      CLOUDY    36  34  93 N13G21    30.04F
SALISBURY      LGT RAIN  39  38  96 N13       29.99F FOG
OCEAN CITY     LGT RAIN  40  38  93 N12       29.98F FOG
WALLOPS ISLAND LGT RAIN  40  38  93 NW10G20   29.98F FOG
ACCOMACK*      LGT RAIN  37  36  93 N13G26    30.00R
$$

NCZ012>017-030>032-050800-
NORTH CENTRAL AND EASTERN NORTH CAROLINA

CITY           SKY/WX    TMP DP  RH WIND       PRES   REMARKS
ROANOKE RAPIDS RAIN      39  37  93 N17       29.99F
RALEIGH        DRIZZLE   42  39  89 NE8G20    30.03R FOG
ELIZABETH CITY LGT RAIN  42  40  92 N18G29    29.91F
AHOSKIE*       LGT RAIN  40  38  95 N14G21    29.99F
EDENTON*       LGT RAIN  43  42  99 N16G24    29.95R
CURRITUCK*     LGT RAIN  43  43  99 N10G22    29.92F
KILL DEVIL HLS RAIN      44  43  97 NE8       29.87F
MANTEO         RAIN      44  44 100 NE16G22   29.90F
CAPE HATTERAS  LGT RAIN N/A N/A N/A NE8       29.87F
TARBORO*       RAIN      42  40  93 N15G23    29.99S
GOLDSBORO      LGT RAIN  43  43 100 N9        29.96R FOG
WASHINGTON     HVY RAIN  42  41  95 NW13G18   29.98R
GREENVILLE     RAIN      43  41  93 N17       29.98S
NEW BERN       LGT RAIN  46  44  93 N13       29.91R
WILMINGTON     LGT RAIN  51  48  89 NW20      29.90R
$$

VAZ048-050800-
ELSEWHERE

CITY           SKY/WX    TMP DP  RH WIND       PRES   REMARKS
HARRISBURG PA  CLOUDY    39  26  59 NW6       30.09F
BALTIMORE      FLURRIES  37  30  75 N9        30.09S
ANNAPOLIS      MIX PCPN  37  33  85 NW10      30.08F FOG
ANDREWS AFB    LGT RAIN  35  31  85 NW13      30.09R
PHILADELPHIA   LGT RAIN  39  33  79 N9        30.07R FOG
HENDERSON NC   LGT RAIN  40  37  87 N7        30.02S
GREENSBORO     FLURRIES  36  33  89 VRB7G20   30.07R
ROCKY MOUNT    HVY RAIN  41  40  96 N15       30.01R FOG
$$

VAZ100-050800-
MARINE

STATION/POSITION TIME  TEMP    WIND        PRES    WAVE   SWELL
                       AIR SEA DIR/SP/G            HT/PER HT/PER
                 (UTC) (F)     (DEG/KT/KT) (MB)    (FT/S) (FT/S)
BRANDYWINE LGT   0600   39     360/ 15/ 17 1016.6F
CAPE MAY NJ      0600   40 43  340/  5/ 11 1016.2F
LEWES DE         0600   40 43  350/ 17/ 20 1016.3F
15NM E FENWICK I 0650   41 45              1014.1F   4/ 7
OCEAN-CITY-INLET 0600   40 47  360/ 13/ 16 1015.0F
WACHAPREAGUE VA  0600   40 51  360/  7/ 11 1015.7F
GOOSES REEF MD   0700   38 40  350/ 17/ 25 1019.0S   2/ 3
COVE POINT MD    0600   39     350/ 21/ 25 1018.6F
SOLOMONS ISLAND  0600   40 41  330/  9/ 15   N/A
BISHOPS HEAD MD  0600   40 44  340/ 11/ 15 1016.2F
POTOMAC MD       0700   38 42  350/ 16/ 19 1016.2F   1/ 2
CAMBRIDGE MD     0600   40 41  330/ 16/ 18 1016.7F
LEWISETTA VA     0600   40 44  360/ 10/ 15 1017.7R
RAPPAHANNOCK LGT 0600          360/ 24/ 27 1015.9F
STINGRAY PT      0700   40 42  360/ 21/ 25 1016.1F   2/ 3
YORK RVR RNG VA  0600   41      10/ 19/ 24 1015.9R
YORKTOWN VA      0600   41 46  350/ 17/ 21 1016.5F
JAMESTOWN VA     0700   39 44  330/ 12/ 17   N/A
DOMINION TERM VA 0600   41      10/ 15/ 24 1016.1F
KIPTOPEKE VA     0600      45   10/ 12/ 18   N/A
CHES BAY BRIDGE  0600   40 43  340/ 27/ 32 1015.1F
CAPE HENRY VA    0600   41     350/ 21/ 24   N/A
CHESAPEAKE LGHT  0600   42      20/ 25/ 26 1014.6F
WILLOUBY STN VA  0600   41     360/ 19/ 21 1016.7F
CAPE HENRY BUOY  0628      47                N/A     5/ 5
1ST LANDING BUOY 0700      43                N/A     4/ 3
CAPE CHARLES BUO 0626      46                N/A     5/ 5   2/ 8
OFFSHORE WE BUOY 0621      49                N/A     6/ 6   2/13
64NM E OF VA BCH 0650   49 53   20/ 17/ 21 1012.2F   7/ 6   2/ 9
DUCK PIER NC     0600   44 46   10/ 18/ 23 1012.2F
44100 DUCK FRF   0624      47                N/A     6/ 6
44056 DUCK FRF   0611      45                N/A     6/ 6
OREGON INLET NC  0600   46 56   10/ 10/ 16 1013.3F
HATTERAS NC      0600   50 60   30/ 12/ 16 1012.0F
DIAMOND SHLS NC  0650   71 71  200/ 25/ 33 1010.5F   7/ 7   3/10
$$



USA.gov is the U.S. government's official web portal to all federal, state and local government web resources and services.